| time (UTC) | temp C | wind direction | speed KPH | gust KPH | rain 1hr cm | rain 24hr cm | rain mn cm | humidity % | barometer mb |
| 20260906101023 | 21 | 349 | 3.2 | 11.3 | 0.00 | 0.08 | 0.08 | 96 | 1014.2 |
| 20260906100520 | 21 | 299 | 3.2 | 11.3 | 0.00 | 0.08 | 0.08 | 96 | 1014.1 |
| 20260906100037 | 21 | 290 | 3.2 | 9.7 | 0.00 | 0.08 | 0.08 | 96 | 1014.2 |
| 20260906095517 | 21 | 356 | 1.6 | 8.0 | 0.00 | 0.08 | 0.08 | 96 | 1013.9 |
| 20260906095020 | 21 | 273 | 1.6 | 9.7 | 0.00 | 0.08 | 0.08 | 96 | 1014.0 |
| 20260906094539 | 21 | 22 | 1.6 | 9.7 | 0.00 | 0.08 | 0.08 | 97 | 1013.9 |
| 20260906094021 | 21 | 313 | 1.6 | 6.4 | 0.00 | 0.08 | 0.08 | 97 | 1014.0 |
| 20260906093521 | 21 | 299 | 1.6 | 6.4 | 0.00 | 0.08 | 0.08 | 97 | 1014.2 |
| 20260906093044 | 21 | 283 | 1.6 | 6.4 | 0.00 | 0.08 | 0.08 | 97 | 1014.2 |
| 20260906092523 | 21 | 305 | 0.0 | 1.6 | 0.00 | 0.08 | 0.08 | 97 | 1014.2 |
| 20260906092022 | 21 | 329 | 0.0 | 1.6 | 0.00 | 0.08 | 0.08 | 97 | 1014.2 |
| 20260906091539 | 21 | 0 | 0.0 | 1.6 | 0.00 | 0.08 | 0.08 | 97 | 1014.3 |
| 20260906091019 | 21 | 0 | 0.0 | 1.6 | 0.00 | 0.08 | 0.08 | 97 | 1014.5 |
| 20260906090520 | 21 | 332 | 0.0 | 1.6 | 0.00 | 0.08 | 0.08 | 97 | 1014.4 |
| 20260906090039 | 21 | 0 | 0.0 | 4.8 | 0.00 | 0.08 | 0.08 | 96 | 1014.4 |
| 20260906085519 | 21 | 0 | 0.0 | 4.8 | 0.03 | 0.08 | 0.08 | 96 | 1014.1 |
| 20260906085021 | 21 | 0 | 0.0 | 3.2 | 0.05 | 0.08 | 0.08 | 96 | 1014.2 |
| 20260906084536 | 21 | 0 | 0.0 | 3.2 | 0.08 | 0.08 | 0.08 | 96 | 1014.2 |
| 20260906084020 | 21 | 347 | 0.0 | 4.8 | 0.08 | 0.08 | 0.08 | 96 | 1014.2 |
| 20260906083519 | 21 | 354 | 0.0 | 4.8 | 0.08 | 0.08 | 0.08 | 96 | 1014.1 |
| 20260906083037 | 21 | 8 | 1.6 | 4.8 | 0.08 | 0.08 | 0.08 | 96 | 1014.0 |
| 20260906082522 | 21 | 34 | 0.0 | 3.2 | 0.08 | 0.08 | 0.08 | 96 | 1013.9 |
| 20260906082018 | 21 | 0 | 0.0 | 1.6 | 0.08 | 0.08 | 0.08 | 96 | 1013.8 |
| 20260906081536 | 21 | 42 | 0.0 | 1.6 | 0.08 | 0.08 | 0.08 | 96 | 1013.8 |
| 20260906081019 | 21 | 0 | 0.0 | 3.2 | 0.08 | 0.08 | 0.08 | 95 | 1013.9 |
| 20260906080521 | 21 | 35 | 0.0 | 3.2 | 0.08 | 0.08 | 0.08 | 95 | 1013.9 |
| 20260906080035 | 22 | 63 | 0.0 | 3.2 | 0.08 | 0.08 | 0.08 | 95 | 1013.8 |
| 20260906075519 | 22 | 53 | 1.6 | 3.2 | 0.03 | 0.03 | 0.03 | 95 | 1013.6 |
| 20260906075019 | 22 | 359 | 1.6 | 4.8 | 0.03 | 0.03 | 0.03 | 94 | 1013.7 |
| 20260906074539 | 22 | 19 | 0.0 | 4.8 | 0.00 | 0.00 | 0.00 | 93 | 1013.6 |
| 20260906074016 | 22 | 1 | 1.6 | 3.2 | 0.00 | 0.00 | 0.00 | 88 | 1013.6 |
| 20260906073523 | 22 | 0 | 0.0 | 3.2 | 0.00 | 0.00 | 0.00 | 88 | 1013.7 |
| 20260906073037 | 22 | 4 | 1.6 | 4.8 | 0.00 | 0.00 | 0.00 | 87 | 1013.7 |
| 20260906072519 | 22 | 352 | 1.6 | 4.8 | 0.00 | 0.00 | 0.00 | 86 | 1013.9 |
| 20260906072024 | 23 | 349 | 3.2 | 4.8 | 0.00 | 0.00 | 0.00 | 85 | 1013.9 |
| 20260906071535 | 23 | 348 | 3.2 | 4.8 | 0.00 | 0.00 | 0.00 | 84 | 1013.9 |
| 20260906071018 | 23 | 27 | 1.6 | 3.2 | 0.00 | 0.00 | 0.00 | 84 | 1013.9 |
| 20260906070520 | 23 | 0 | 0.0 | 1.6 | 0.00 | 0.00 | 0.00 | 85 | 1014.0 |
| 20260906070037 | 23 | 0 | 0.0 | 3.2 | 0.00 | 0.00 | 0.00 | 85 | 1013.9 |
| 20260906065521 | 23 | 0 | 0.0 | 6.4 | 0.00 | 0.00 | 0.00 | 85 | 1013.8 |
| 20260906065018 | 23 | 12 | 3.2 | 6.4 | 0.00 | 0.00 | 0.00 | 84 | 1013.7 |
| 20260906064542 | 23 | 6 | 1.6 | 4.8 | 0.00 | 0.00 | 0.00 | 84 | 1013.8 |
| 20260906064020 | 23 | 0 | 0.0 | 0.0 | 0.00 | 0.00 | 0.00 | 83 | 1013.8 |
| 20260906063522 | 23 | 0 | 0.0 | 0.0 | 0.00 | 0.00 | 0.00 | 82 | 1014.1 |
| 20260906063036 | 23 | 0 | 0.0 | 0.0 | 0.00 | 0.00 | 0.00 | 81 | 1014.1 |
| 20260906062520 | 23 | 0 | 0.0 | 0.0 | 0.00 | 0.00 | 0.00 | 82 | 1014.0 |
| 20260906062019 | 23 | 0 | 0.0 | 0.0 | 0.00 | 0.00 | 0.00 | 82 | 1013.9 |
| 20260906061538 | 23 | 0 | 0.0 | 0.0 | 0.00 | 0.00 | 0.00 | 83 | 1014.1 |
| 20260906061019 | 23 | 0 | 0.0 | 0.0 | 0.00 | 0.00 | 0.00 | 83 | 1014.1 |
| 20260906060519 | 23 | 0 | 0.0 | 0.0 | 0.00 | 0.00 | 0.00 | 83 | 1014.0 |
| 20260906060035 | 24 | 0 | 0.0 | 0.0 | 0.00 | 0.00 | 0.00 | 82 | 1014.1 |
| 20260906055522 | 24 | 0 | 0.0 | 0.0 | 0.00 | 0.00 | 0.00 | 82 | 1014.4 |
| 20260906055019 | 24 | 0 | 0.0 | 0.0 | 0.00 | 0.00 | 0.00 | 82 | 1014.3 |
| 20260906054539 | 24 | 0 | 0.0 | 0.0 | 0.00 | 0.00 | 0.00 | 81 | 1014.0 |
| 20260906054022 | 24 | 0 | 0.0 | 0.0 | 0.00 | 0.00 | 0.00 | 80 | 1014.2 |
| 20260906053523 | 24 | 0 | 0.0 | 0.0 | 0.00 | 0.00 | 0.00 | 80 | 1014.3 |
| 20260906053038 | 24 | 0 | 0.0 | 0.0 | 0.00 | 0.00 | 0.00 | 80 | 1014.5 |
| 20260906052518 | 24 | 0 | 0.0 | 0.0 | 0.00 | 0.00 | 0.00 | 80 | 1014.5 |
| 20260906052020 | 24 | 0 | 0.0 | 0.0 | 0.00 | 0.00 | 0.00 | 80 | 1014.5 |
| 20260906051537 | 24 | 0 | 0.0 | 0.0 | 0.00 | 0.00 | 0.00 | 81 | 1014.6 |
| 20260906051022 | 24 | 0 | 0.0 | 0.0 | 0.00 | 0.00 | 0.00 | 80 | 1014.6 |
| 20260906050524 | 24 | 0 | 0.0 | 0.0 | 0.00 | 0.00 | 0.00 | 80 | 1014.6 |
| 20260906050036 | 24 | 0 | 0.0 | 0.0 | 0.00 | 0.00 | 0.00 | 80 | 1014.7 |
| 20260906045523 | 24 | 0 | 0.0 | 0.0 | 0.00 | 0.00 | 0.00 | 79 | 1014.8 |
| 20260906045018 | 24 | 0 | 0.0 | 0.0 | 0.00 | 0.00 | 0.00 | 78 | 1014.9 |
| 20260906044542 | 25 | 0 | 0.0 | 0.0 | 0.00 | 0.00 | 0.00 | 78 | 1014.8 |
| 20260906044024 | 24 | 0 | 0.0 | 0.0 | 0.00 | 0.00 | 0.00 | 77 | 1014.9 |
| 20260906043519 | 24 | 0 | 0.0 | 0.0 | 0.00 | 0.00 | 0.00 | 78 | 1015.0 |
| 20260906043035 | 24 | 0 | 0.0 | 0.0 | 0.00 | 0.00 | 0.00 | 81 | 1014.9 |
| 20260906042521 | 24 | 0 | 0.0 | 0.0 | 0.00 | 0.00 | 0.00 | 81 | 1015.1 |
| 20260906042021 | 24 | 0 | 0.0 | 0.0 | 0.00 | 0.00 | 0.00 | 81 | 1014.7 |
| 20260906041536 | 25 | 0 | 0.0 | 0.0 | 0.00 | 0.00 | 0.00 | 81 | 1014.9 |
| 20260906041022 | 25 | 0 | 0.0 | 0.0 | 0.00 | 0.00 | 0.00 | 80 | 1014.9 |
| 20260906040519 | 25 | 0 | 0.0 | 0.0 | 0.00 | 0.00 | 0.00 | 80 | 1014.9 |
| 20260906040041 | 25 | 0 | 0.0 | 0.0 | 0.00 | 0.00 | 0.00 | 79 | 1014.9 |
| 20260906035524 | 25 | 0 | 0.0 | 0.0 | 0.00 | 0.00 | 0.00 | 79 | 1015.0 |
| 20260906035018 | 25 | 0 | 0.0 | 0.0 | 0.00 | 0.00 | 0.00 | 79 | 1015.0 |
| 20260906034538 | 25 | 0 | 0.0 | 0.0 | 0.00 | 0.00 | 0.00 | 79 | 1015.1 |
| 20260906034019 | 25 | 0 | 0.0 | 0.0 | 0.00 | 0.00 | 0.00 | 78 | 1015.1 |
| 20260906033521 | 25 | 0 | 0.0 | 0.0 | 0.00 | 0.00 | 0.00 | 78 | 1015.1 |
| 20260906033038 | 25 | 0 | 0.0 | 0.0 | 0.00 | 0.00 | 0.00 | 78 | 1015.1 |
| 20260906032520 | 25 | 0 | 0.0 | 0.0 | 0.00 | 0.00 | 0.00 | 77 | 1015.1 |
| 20260906032024 | 25 | 0 | 0.0 | 0.0 | 0.00 | 0.00 | 0.00 | 77 | 1015.0 |
| 20260906031534 | 25 | 0 | 0.0 | 0.0 | 0.00 | 0.00 | 0.00 | 77 | 1014.9 |
| 20260906031022 | 25 | 0 | 0.0 | 0.0 | 0.00 | 0.00 | 0.00 | 77 | 1015.1 |
| 20260906030519 | 25 | 0 | 0.0 | 0.0 | 0.00 | 0.00 | 0.00 | 77 | 1015.1 |
| 20260906030043 | 25 | 0 | 0.0 | 0.0 | 0.00 | 0.00 | 0.00 | 77 | 1015.1 |
| 20260906025516 | 26 | 0 | 0.0 | 0.0 | 0.00 | 0.00 | 0.00 | 77 | 1015.1 |
| 20260906025020 | 26 | 0 | 0.0 | 0.0 | 0.00 | 0.00 | 0.00 | 76 | 1014.8 |
| 20260906024541 | 26 | 0 | 0.0 | 0.0 | 0.00 | 0.00 | 0.00 | 76 | 1014.8 |
| 20260906024020 | 26 | 0 | 0.0 | 0.0 | 0.00 | 0.00 | 0.00 | 75 | 1015.0 |
| 20260906023520 | 26 | 0 | 0.0 | 0.0 | 0.00 | 0.00 | 0.00 | 73 | 1015.1 |
| 20260906023042 | 26 | 0 | 0.0 | 0.0 | 0.00 | 0.00 | 0.00 | 72 | 1014.9 |
| 20260906022519 | 26 | 0 | 0.0 | 0.0 | 0.00 | 0.00 | 0.00 | 72 | 1014.9 |
| 20260906022019 | 26 | 0 | 0.0 | 0.0 | 0.00 | 0.00 | 0.00 | 72 | 1014.8 |
| 20260906021542 | 26 | 0 | 0.0 | 0.0 | 0.00 | 0.00 | 0.00 | 72 | 1014.8 |
| 20260906021020 | 26 | 0 | 0.0 | 0.0 | 0.00 | 0.00 | 0.00 | 73 | 1014.6 |
| 20260906020522 | 26 | 0 | 0.0 | 0.0 | 0.00 | 0.00 | 0.00 | 73 | 1014.6 |
| 20260906020039 | 26 | 0 | 0.0 | 1.6 | 0.00 | 0.00 | 0.00 | 73 | 1014.6 |
| 20260906015519 | 26 | 0 | 0.0 | 1.6 | 0.00 | 0.00 | 0.00 | 72 | 1014.5 |
| 20260906015021 | 26 | 0 | 0.0 | 1.6 | 0.00 | 0.00 | 0.00 | 72 | 1014.5 |
| 20260906014547 | 26 | 152 | 0.0 | 0.0 | 0.00 | 0.00 | 0.00 | 72 | 1014.6 |
| 20260906014021 | 26 | 153 | 0.0 | 0.0 | 0.00 | 0.00 | 0.00 | 72 | 1014.6 |
| 20260906013521 | 26 | 0 | 0.0 | 0.0 | 0.00 | 0.00 | 0.00 | 72 | 1014.9 |
| 20260906013043 | 26 | 0 | 0.0 | 0.0 | 0.00 | 0.00 | 0.00 | 71 | 1014.6 |
| 20260906012522 | 27 | 0 | 0.0 | 0.0 | 0.00 | 0.00 | 0.00 | 71 | 1014.8 |
| 20260906012020 | 27 | 0 | 0.0 | 0.0 | 0.00 | 0.00 | 0.00 | 70 | 1014.9 |
| 20260906011537 | 27 | 0 | 0.0 | 0.0 | 0.00 | 0.00 | 0.00 | 69 | 1014.7 |
| 20260906011019 | 27 | 0 | 0.0 | 1.6 | 0.00 | 0.00 | 0.00 | 68 | 1014.7 |
| 20260906010521 | 27 | 0 | 0.0 | 1.6 | 0.00 | 0.00 | 0.00 | 68 | 1014.6 |
| 20260906010036 | 27 | 0 | 0.0 | 1.6 | 0.00 | 0.00 | 0.00 | 67 | 1014.5 |
| 20260906005520 | 27 | 0 | 0.0 | 3.2 | 0.00 | 0.00 | 0.00 | 66 | 1013.9 |
| 20260906005020 | 27 | 0 | 0.0 | 3.2 | 0.00 | 0.00 | 0.00 | 66 | 1013.4 |
| 20260906004537 | 28 | 329 | 0.0 | 3.2 | 0.00 | 0.00 | 0.00 | 64 | 1013.3 |
| 20260906004025 | 28 | 63 | 0.0 | 4.8 | 0.00 | 0.00 | 0.00 | 64 | 1013.3 |
| 20260906003518 | 28 | 0 | 0.0 | 4.8 | 0.00 | 0.00 | 0.00 | 63 | 1013.2 |
| 20260906003037 | 28 | 0 | 0.0 | 3.2 | 0.00 | 0.00 | 0.00 | 64 | 1013.1 |
| 20260906002521 | 28 | 102 | 0.0 | 3.2 | 0.00 | 0.00 | 0.00 | 64 | 1013.1 |
| 20260906002023 | 28 | 139 | 0.0 | 3.2 | 0.00 | 0.00 | 0.00 | 62 | 1013.3 |
| 20260906001539 | 28 | 137 | 0.0 | 4.8 | 0.00 | 0.00 | 0.00 | 63 | 1013.3 |
| 20260906001017 | 28 | 0 | 0.0 | 9.7 | 0.00 | 0.00 | 0.00 | 61 | 1013.4 |
| 20260906000521 | 28 | 100 | 0.0 | 9.7 | 0.00 | 0.00 | 0.00 | 60 | 1013.4 |
| 20260906000038 | 28 | 108 | 0.0 | 4.8 | 0.00 | 0.00 | 0.00 | 61 | 1013.5 |
| 20260905235519 | 28 | 158 | 0.0 | 6.4 | 0.00 | 0.00 | 0.00 | 60 | 1013.6 |
| 20260905235017 | 28 | 68 | 0.0 | 11.3 | 0.00 | 0.00 | 0.00 | 61 | 1013.8 |
| 20260905234540 | 28 | 73 | 1.6 | 11.3 | 0.00 | 0.00 | 0.00 | 61 | 1013.8 |
| 20260905234020 | 28 | 212 | 0.0 | 8.0 | 0.00 | 0.00 | 0.00 | 62 | 1013.7 |
| 20260905233525 | 28 | 0 | 1.6 | 9.7 | 0.00 | 0.00 | 0.00 | 63 | 1013.6 |
| 20260905233037 | 28 | 308 | 3.2 | 9.7 | 0.00 | 0.00 | 0.00 | 64 | 1013.6 |
| 20260905232521 | 28 | 203 | 3.2 | 9.7 | 0.00 | 0.00 | 0.00 | 63 | 1013.3 |
| 20260905232022 | 28 | 330 | 3.2 | 9.7 | 0.00 | 0.00 | 0.00 | 64 | 1013.1 |
| 20260905231537 | 28 | 340 | 1.6 | 9.7 | 0.00 | 0.00 | 0.00 | 64 | 1012.9 |
| 20260905231020 | 29 | 337 | 1.6 | 8.0 | 0.00 | 0.00 | 0.00 | 64 | 1012.8 |
| 20260905230520 | 28 | 345 | 0.0 | 4.8 | 0.00 | 0.00 | 0.00 | 64 | 1012.9 |
| 20260905230038 | 28 | 70 | 0.0 | 0.0 | 0.00 | 0.00 | 0.00 | 65 | 1012.9 |
| 20260905225519 | 28 | 0 | 0.0 | 0.0 | 0.00 | 0.00 | 0.00 | 66 | 1012.9 |
| 20260905225019 | 28 | 0 | 0.0 | 0.0 | 0.00 | 0.00 | 0.00 | 67 | 1013.1 |
| 20260905224535 | 28 | 0 | 0.0 | 1.6 | 0.00 | 0.00 | 0.00 | 67 | 1013.4 |
| 20260905224020 | 28 | 150 | 0.0 | 1.6 | 0.00 | 0.00 | 0.00 | 65 | 1013.1 |
| 20260905223520 | 28 | 142 | 0.0 | 1.6 | 0.00 | 0.00 | 0.00 | 67 | 1013.3 |
| 20260905223039 | 29 | 0 | 0.0 | 3.2 | 0.00 | 0.00 | 0.00 | 65 | 1013.3 |
| 20260905222522 | 30 | 0 | 0.0 | 16.1 | 0.00 | 0.00 | 0.00 | 62 | 1013.3 |
| 20260905222020 | 31 | 128 | 0.0 | 16.1 | 0.00 | 0.00 | 0.00 | 60 | 1013.4 |
| 20260905221537 | 32 | 0 | 4.8 | 16.1 | 0.00 | 0.00 | 0.00 | 57 | 1013.4 |
| 20260905221017 | 32 | 8 | 3.2 | 22.5 | 0.00 | 0.00 | 0.00 | 56 | 1013.3 |
| 20260905220519 | 33 | 341 | 3.2 | 22.5 | 0.00 | 0.00 | 0.00 | 53 | 1013.1 |
| 20260905220037 | 33 | 360 | 3.2 | 9.7 | 0.00 | 0.00 | 0.00 | 50 | 1012.9 |
| 20260905215518 | 34 | 20 | 3.2 | 9.7 | 0.00 | 0.00 | 0.00 | 48 | 1013.0 |
| 20260905215023 | 34 | 354 | 3.2 | 12.9 | 0.00 | 0.00 | 0.00 | 49 | 1013.0 |
| 20260905214539 | 35 | 9 | 1.6 | 12.9 | 0.00 | 0.00 | 0.00 | 47 | 1012.8 |
| 20260905214023 | 35 | 301 | 3.2 | 14.5 | 0.00 | 0.00 | 0.00 | 45 | 1012.8 |
| 20260905213521 | 35 | 18 | 3.2 | 14.5 | 0.00 | 0.00 | 0.00 | 46 | 1012.7 |
| 20260905213035 | 35 | 5 | 1.6 | 9.7 | 0.00 | 0.00 | 0.00 | 47 | 1012.7 |
| 20260905212521 | 35 | 326 | 3.2 | 9.7 | 0.00 | 0.00 | 0.00 | 46 | 1012.8 |
| 20260905212021 | 35 | 285 | 1.6 | 9.7 | 0.00 | 0.00 | 0.00 | 47 | 1012.8 |
| 20260905211540 | 36 | 333 | 3.2 | 9.7 | 0.00 | 0.00 | 0.00 | 47 | 1012.9 |
| 20260905211018 | 36 | 0 | 1.6 | 6.4 | 0.00 | 0.00 | 0.00 | 47 | 1012.8 |
| 20260905210518 | 36 | 47 | 1.6 | 8.0 | 0.00 | 0.00 | 0.00 | 44 | 1012.8 |
| 20260905210038 | 36 | 26 | 0.0 | 8.0 | 0.00 | 0.00 | 0.00 | 46 | 1012.7 |
| 20260905205519 | 35 | 342 | 3.2 | 8.0 | 0.00 | 0.00 | 0.00 | 47 | 1012.8 |
| 20260905205018 | 35 | 44 | 1.6 | 8.0 | 0.00 | 0.00 | 0.00 | 46 | 1012.9 |
| 20260905204539 | 35 | 360 | 3.2 | 8.0 | 0.00 | 0.00 | 0.00 | 47 | 1013.1 |
| 20260905204019 | 35 | 349 | 1.6 | 8.0 | 0.00 | 0.00 | 0.00 | 48 | 1013.1 |
| 20260905203516 | 34 | 17 | 0.0 | 4.8 | 0.00 | 0.00 | 0.00 | 49 | 1013.2 |
| 20260905203036 | 33 | 0 | 0.0 | 6.4 | 0.00 | 0.00 | 0.00 | 50 | 1013.4 |
| 20260905202520 | 34 | 13 | 0.0 | 8.0 | 0.00 | 0.00 | 0.00 | 49 | 1013.4 |
| 20260905202021 | 35 | 333 | 3.2 | 8.0 | 0.00 | 0.00 | 0.00 | 48 | 1013.5 |
| 20260905201536 | 35 | 1 | 1.6 | 8.0 | 0.00 | 0.00 | 0.00 | 49 | 1013.5 |
| 20260905201019 | 35 | 0 | 1.6 | 6.4 | 0.00 | 0.00 | 0.00 | 49 | 1013.6 |
| 20260905200522 | 34 | 0 | 0.0 | 6.4 | 0.00 | 0.00 | 0.00 | 50 | 1013.7 |
| 20260905200043 | 34 | 359 | 0.0 | 6.4 | 0.00 | 0.00 | 0.00 | 49 | 1013.8 |
| 20260905195520 | 35 | 0 | 0.0 | 6.4 | 0.00 | 0.00 | 0.00 | 48 | 1013.8 |
| 20260905195019 | 35 | 326 | 1.6 | 6.4 | 0.00 | 0.00 | 0.00 | 52 | 1013.9 |
| 20260905194541 | 35 | 0 | 1.6 | 8.0 | 0.00 | 0.00 | 0.00 | 50 | 1014.0 |
| 20260905194019 | 35 | 319 | 3.2 | 8.0 | 0.00 | 0.00 | 0.00 | 49 | 1014.0 |
| 20260905193526 | 35 | 11 | 1.6 | 6.4 | 0.00 | 0.00 | 0.00 | 50 | 1014.0 |
| 20260905193036 | 35 | 100 | 1.6 | 6.4 | 0.00 | 0.00 | 0.00 | 47 | 1014.1 |
| 20260905192520 | 35 | 301 | 1.6 | 6.4 | 0.00 | 0.00 | 0.00 | 47 | 1014.2 |
| 20260905192020 | 35 | 56 | 1.6 | 6.4 | 0.00 | 0.00 | 0.00 | 50 | 1014.3 |
| 20260905191542 | 34 | 0 | 0.0 | 3.2 | 0.00 | 0.00 | 0.00 | 54 | 1014.2 |
| 20260905191025 | 33 | 358 | 0.0 | 3.2 | 0.00 | 0.00 | 0.00 | 53 | 1014.3 |
| 20260905190520 | 33 | 27 | 0.0 | 8.0 | 0.00 | 0.00 | 0.00 | 54 | 1014.3 |
| 20260905190046 | 34 | 0 | 0.0 | 8.0 | 0.00 | 0.00 | 0.00 | 53 | 1014.4 |
| 20260905185519 | 34 | 351 | 3.2 | 8.0 | 0.00 | 0.00 | 0.00 | 52 | 1014.6 |
| 20260905185018 | 35 | 4 | 1.6 | 9.7 | 0.00 | 0.00 | 0.00 | 53 | 1014.7 |
| 20260905184546 | 34 | 0 | 1.6 | 9.7 | 0.00 | 0.00 | 0.00 | 55 | 1014.5 |
| 20260905184020 | 34 | 327 | 1.6 | 9.7 | 0.00 | 0.00 | 0.00 | 53 | 1014.5 |
| 20260905183523 | 34 | 0 | 1.6 | 11.3 | 0.00 | 0.00 | 0.00 | 53 | 1014.6 |
| 20260905183038 | 35 | 324 | 1.6 | 11.3 | 0.00 | 0.00 | 0.00 | 52 | 1014.7 |
| 20260905182520 | 35 | 14 | 1.6 | 9.7 | 0.00 | 0.00 | 0.00 | 58 | 1014.8 |
| 20260905182021 | 34 | 285 | 1.6 | 9.7 | 0.00 | 0.00 | 0.00 | 57 | 1014.8 |
| 20260905181539 | 33 | 328 | 0.0 | 4.8 | 0.00 | 0.00 | 0.00 | 55 | 1015.0 |
| 20260905181019 | 33 | 0 | 0.0 | 6.4 | 0.00 | 0.00 | 0.00 | 56 | 1015.1 |
| 20260905180520 | 33 | 41 | 1.6 | 6.4 | 0.00 | 0.00 | 0.00 | 58 | 1015.2 |
| 20260905180036 | 33 | 354 | 3.2 | 12.9 | 0.00 | 0.00 | 0.00 | 57 | 1015.2 |
| 20260905175518 | 33 | 284 | 3.2 | 12.9 | 0.00 | 0.00 | 0.00 | 57 | 1015.3 |
| 20260905175023 | 32 | 355 | 1.6 | 12.9 | 0.00 | 0.00 | 0.00 | 60 | 1015.4 |
| 20260905174541 | 33 | 0 | 0.0 | 9.7 | 0.00 | 0.00 | 0.00 | 58 | 1015.4 |
| 20260905174021 | 33 | 0 | 1.6 | 9.7 | 0.00 | 0.00 | 0.00 | 58 | 1015.6 |
| 20260905173520 | 34 | 322 | 1.6 | 9.7 | 0.00 | 0.00 | 0.00 | 55 | 1015.5 |
| 20260905173037 | 34 | 49 | 0.0 | 11.3 | 0.00 | 0.00 | 0.00 | 57 | 1015.4 |
| 20260905172521 | 34 | 326 | 3.2 | 11.3 | 0.00 | 0.00 | 0.00 | 56 | 1015.4 |
| 20260905172019 | 35 | 352 | 4.8 | 11.3 | 0.00 | 0.00 | 0.00 | 56 | 1015.5 |
| 20260905171545 | 35 | 332 | 0.0 | 11.3 | 0.00 | 0.00 | 0.00 | 55 | 1015.5 |
| 20260905171021 | 35 | 34 | 1.6 | 9.7 | 0.00 | 0.00 | 0.00 | 56 | 1015.5 |
| 20260905170520 | 34 | 300 | 1.6 | 8.0 | 0.00 | 0.00 | 0.00 | 56 | 1015.7 |
| 20260905170040 | 33 | 32 | 1.6 | 8.0 | 0.00 | 0.00 | 0.00 | 56 | 1015.9 |
| 20260905165516 | 34 | 301 | 3.2 | 8.0 | 0.00 | 0.00 | 0.00 | 57 | 1015.9 |
| 20260905165016 | 33 | 22 | 3.2 | 8.0 | 0.00 | 0.00 | 0.00 | 60 | 1015.9 |
| 20260905164538 | 33 | 311 | 3.2 | 11.3 | 0.00 | 0.00 | 0.00 | 62 | 1016.0 |
| 20260905164019 | 33 | 23 | 1.6 | 11.3 | 0.00 | 0.00 | 0.00 | 59 | 1016.1 |
| 20260905163521 | 34 | 319 | 3.2 | 11.3 | 0.00 | 0.00 | 0.00 | 59 | 1016.1 |
| 20260905163041 | 34 | 300 | 1.6 | 9.7 | 0.00 | 0.00 | 0.00 | 59 | 1016.1 |
| 20260905162518 | 33 | 0 | 1.6 | 9.7 | 0.00 | 0.00 | 0.00 | 61 | 1016.0 |
| 20260905162020 | 33 | 348 | 1.6 | 8.0 | 0.00 | 0.00 | 0.00 | 60 | 1016.1 |
| 20260905161537 | 33 | 0 | 0.0 | 8.0 | 0.00 | 0.00 | 0.00 | 63 | 1016.2 |
| 20260905161018 | 32 | 36 | 3.2 | 9.7 | 0.00 | 0.00 | 0.00 | 64 | 1016.3 |
| 20260905160519 | 32 | 11 | 1.6 | 9.7 | 0.00 | 0.00 | 0.00 | 63 | 1016.4 |
| 20260905160040 | 32 | 0 | 1.6 | 9.7 | 0.00 | 0.00 | 0.00 | 63 | 1016.6 |
| 20260905155521 | 32 | 27 | 1.6 | 9.7 | 0.00 | 0.00 | 0.00 | 65 | 1016.4 |
| 20260905155017 | 32 | 10 | 4.8 | 11.3 | 0.00 | 0.00 | 0.00 | 66 | 1016.5 |
| 20260905154539 | 31 | 24 | 3.2 | 11.3 | 0.00 | 0.00 | 0.00 | 65 | 1016.6 |
| 20260905154020 | 31 | 323 | 4.8 | 9.7 | 0.00 | 0.00 | 0.00 | 67 | 1016.8 |
| 20260905153520 | 31 | 16 | 3.2 | 8.0 | 0.00 | 0.00 | 0.00 | 67 | 1016.9 |
| 20260905153055 | 31 | 288 | 0.0 | 6.4 | 0.00 | 0.00 | 0.00 | 66 | 1017.0 |
| 20260905152519 | 31 | 25 | 0.0 | 6.4 | 0.00 | 0.00 | 0.00 | 67 | 1016.8 |
| 20260905152021 | 31 | 4 | 1.6 | 6.4 | 0.00 | 0.00 | 0.00 | 71 | 1016.8 |
| 20260905151539 | 31 | 358 | 1.6 | 6.4 | 0.00 | 0.00 | 0.00 | 69 | 1016.8 |
| 20260905151018 | 30 | 273 | 1.6 | 4.8 | 0.00 | 0.00 | 0.00 | 71 | 1016.8 |
| 20260905150520 | 30 | 342 | 0.0 | 4.8 | 0.00 | 0.00 | 0.00 | 72 | 1016.8 |
| 20260905150039 | 30 | 2 | 1.6 | 8.0 | 0.00 | 0.00 | 0.00 | 72 | 1017.0 |
| 20260905145520 | 30 | 10 | 1.6 | 8.0 | 0.00 | 0.00 | 0.00 | 71 | 1017.0 |
| 20260905145019 | 30 | 4 | 1.6 | 8.0 | 0.00 | 0.00 | 0.00 | 72 | 1016.7 |
| 20260905144538 | 29 | 0 | 0.0 | 6.4 | 0.00 | 0.00 | 0.00 | 75 | 1016.8 |
| 20260905144019 | 28 | 356 | 3.2 | 6.4 | 0.00 | 0.00 | 0.00 | 73 | 1016.8 |
| 20260905143520 | 28 | 25 | 3.2 | 4.8 | 0.00 | 0.00 | 0.00 | 73 | 1016.8 |
| 20260905143037 | 28 | 353 | 1.6 | 6.4 | 0.00 | 0.00 | 0.00 | 78 | 1016.9 |
| 20260905142518 | 28 | 25 | 1.6 | 6.4 | 0.00 | 0.00 | 0.00 | 77 | 1016.9 |
| 20260905142018 | 28 | 359 | 1.6 | 6.4 | 0.00 | 0.00 | 0.00 | 78 | 1017.0 |
| 20260905141550 | 27 | 349 | 1.6 | 6.4 | 0.00 | 0.00 | 0.00 | 77 | 1016.8 |
| 20260905141017 | 27 | 43 | 3.2 | 6.4 | 0.00 | 0.00 | 0.00 | 78 | 1016.8 |
| 20260905140518 | 27 | 355 | 1.6 | 4.8 | 0.00 | 0.00 | 0.00 | 78 | 1016.8 |
| 20260905140036 | 27 | 37 | 1.6 | 4.8 | 0.00 | 0.00 | 0.00 | 79 | 1016.8 |
| 20260905135519 | 27 | 353 | 1.6 | 4.8 | 0.00 | 0.00 | 0.00 | 80 | 1016.9 |
| 20260905135020 | 27 | 23 | 0.0 | 4.8 | 0.00 | 0.00 | 0.00 | 79 | 1016.9 |
| 20260905134535 | 27 | 345 | 1.6 | 4.8 | 0.00 | 0.00 | 0.00 | 80 | 1017.0 |
| 20260905134020 | 27 | 18 | 1.6 | 3.2 | 0.00 | 0.00 | 0.00 | 81 | 1017.0 |
| 20260905133517 | 27 | 0 | 0.0 | 3.2 | 0.00 | 0.00 | 0.00 | 81 | 1017.0 |
| 20260905133037 | 27 | 356 | 0.0 | 3.2 | 0.00 | 0.00 | 0.00 | 82 | 1017.0 |
| 20260905132518 | 26 | 26 | 0.0 | 3.2 | 0.00 | 0.00 | 0.00 | 83 | 1017.0 |
| 20260905132022 | 26 | 348 | 0.0 | 3.2 | 0.00 | 0.00 | 0.00 | 83 | 1017.0 |
| 20260905131536 | 26 | 31 | 0.0 | 3.2 | 0.00 | 0.00 | 0.00 | 83 | 1017.1 |
| 20260905131021 | 26 | 0 | 0.0 | 3.2 | 0.00 | 0.00 | 0.00 | 83 | 1017.1 |
| 20260905130520 | 26 | 31 | 0.0 | 3.2 | 0.00 | 0.00 | 0.00 | 82 | 1017.0 |
| 20260905130036 | 26 | 0 | 0.0 | 1.6 | 0.00 | 0.00 | 0.00 | 84 | 1017.0 |
| 20260905125522 | 25 | 0 | 0.0 | 4.8 | 0.00 | 0.00 | 0.00 | 85 | 1017.1 |
| 20260905125019 | 25 | 6 | 1.6 | 4.8 | 0.00 | 0.00 | 0.00 | 85 | 1017.1 |
| 20260905124541 | 25 | 24 | 1.6 | 4.8 | 0.00 | 0.00 | 0.00 | 85 | 1017.1 |
| 20260905124023 | 25 | 0 | 0.0 | 3.2 | 0.00 | 0.00 | 0.00 | 84 | 1017.1 |
| 20260905123518 | 25 | 0 | 0.0 | 3.2 | 0.00 | 0.00 | 0.00 | 83 | 1016.9 |
| 20260905123038 | 25 | 0 | 0.0 | 1.6 | 0.00 | 0.00 | 0.00 | 83 | 1016.9 |
| 20260905122518 | 25 | 0 | 0.0 | 3.2 | 0.00 | 0.00 | 0.00 | 82 | 1016.9 |
| 20260905122024 | 25 | 0 | 0.0 | 3.2 | 0.00 | 0.00 | 0.00 | 82 | 1016.9 |
| 20260905121537 | 25 | 32 | 0.0 | 3.2 | 0.00 | 0.00 | 0.00 | 81 | 1016.8 |
| 20260905121020 | 25 | 0 | 0.0 | 0.0 | 0.00 | 0.00 | 0.00 | 80 | 1016.8 |
| 20260905120519 | 25 | 0 | 0.0 | 1.6 | 0.00 | 0.00 | 0.00 | 80 | 1016.7 |
| 20260905120038 | 25 | 0 | 0.0 | 1.6 | 0.00 | 0.00 | 0.00 | 80 | 1016.7 |
| 20260905115521 | 25 | 0 | 0.0 | 1.6 | 0.00 | 0.00 | 0.00 | 81 | 1016.7 |
| 20260905115020 | 25 | 0 | 0.0 | 0.0 | 0.00 | 0.00 | 0.00 | 82 | 1016.7 |
| 20260905114541 | 25 | 0 | 0.0 | 0.0 | 0.00 | 0.00 | 0.00 | 83 | 1016.8 |
| 20260905114019 | 24 | 0 | 0.0 | 0.0 | 0.00 | 0.00 | 0.00 | 83 | 1016.5 |
| 20260905113518 | 24 | 0 | 0.0 | 0.0 | 0.00 | 0.00 | 0.00 | 84 | 1016.4 |
| 20260905113036 | 24 | 0 | 0.0 | 0.0 | 0.00 | 0.00 | 0.00 | 84 | 1016.4 |
| 20260905112520 | 24 | 0 | 0.0 | 0.0 | 0.00 | 0.00 | 0.00 | 84 | 1016.3 |
| 20260905112019 | 24 | 0 | 0.0 | 0.0 | 0.00 | 0.00 | 0.00 | 84 | 1016.3 |
| 20260905111542 | 24 | 0 | 0.0 | 0.0 | 0.00 | 0.00 | 0.00 | 84 | 1016.2 |
| 20260905111020 | 24 | 0 | 0.0 | 0.0 | 0.00 | 0.00 | 0.00 | 83 | 1016.2 |
| 20260905110519 | 24 | 0 | 0.0 | 0.0 | 0.00 | 0.00 | 0.00 | 83 | 1016.2 |
| 20260905110036 | 24 | 0 | 0.0 | 0.0 | 0.00 | 0.00 | 0.00 | 84 | 1016.0 |
| 20260905105523 | 24 | 0 | 0.0 | 0.0 | 0.00 | 0.00 | 0.00 | 84 | 1016.0 |
| 20260905105023 | 24 | 0 | 0.0 | 0.0 | 0.00 | 0.00 | 0.00 | 84 | 1016.1 |
| 20260905104538 | 24 | 0 | 0.0 | 0.0 | 0.00 | 0.00 | 0.00 | 84 | 1016.0 |
| 20260905104018 | 24 | 0 | 0.0 | 0.0 | 0.00 | 0.00 | 0.00 | 84 | 1015.9 |
| 20260905103519 | 24 | 0 | 0.0 | 0.0 | 0.00 | 0.00 | 0.00 | 85 | 1015.9 |
| 20260905103039 | 24 | 0 | 0.0 | 0.0 | 0.00 | 0.00 | 0.00 | 84 | 1015.9 |
| 20260905102519 | 24 | 0 | 0.0 | 0.0 | 0.00 | 0.00 | 0.00 | 83 | 1016.0 |
| 20260905102019 | 24 | 0 | 0.0 | 0.0 | 0.00 | 0.00 | 0.00 | 82 | 1016.0 |
| 20260905101537 | 24 | 0 | 0.0 | 0.0 | 0.00 | 0.00 | 0.00 | 82 | 1016.0 |